STARLINK-37507, 68916

Orbit data source: Space-Track

STARLINK-37507, 68916 is a payload satellite owned by SpaceX/Seattle (US) in SSO that was launched on Thu, 30 Apr 2026 UTC via an FALCON 9 launch vehicle from the Air Force Western Test Range (AFWTR). Payload-class satellites include a variety of spacecraft equipped with specific instruments for various scientific and technological missions. These include communications satellites like Starlink; space stations such as the ISS; scientific satellites like the Hubble; Earth observation satellites from companies like Planet Labs, Umbra, and HawkEye 360; GPS; miniature CubeSats for education and research; and military/defense satellites.

Loading next visibility...
Identifier
68916, 2026-097X
Orbit
SSO
Country
Flag of USUS
Related business
Manufacturer
SpaceX/Seattle
Mission
Operational spacecraft
Bus & Motor
STARLINK V2MO, Unknown motor
Mass
575 kg wet, ~530 kg dry
Launch date (UTC)
2026-04-30 (2 months ago)
Launch vehicle
FALCON 9
Launch site
Air Force Western Test Range (AFWTR)
Object type
Payload
Rocket body
Debris
Shape & HBR
Unknown shape, 14.5 m
Radar Cross Section
Large (>1 m²)

Expand to show TLE details & history
Last TLE update: 1 day ago

TLE from 1 day ago
0 STARLINK-37507
1 68916U 26097X   26170.50222216  .00016464  00000-0  51101-3 0  9992
2 68916  97.2855   6.0253 0001908  82.5916 277.5544 15.33455127  7842
Epoch: 2026-06-19T12:03Z
TLE epoch observation values (Epoch: 2026-06-19T12:03:11.994Z)
Latitude
0.00002°
Longitude
-82.50496°
Altitude
468.454 km
Speed
7.632 km/s
True Right ascension
00h 24m 06s
True Declination
0° 00' 00"
Sunlit
Object was in daylight at epoch
Visualization orbit readout
Latitude
Unknown
Longitude
Unknown
Altitude
Unknown
Speed
Unknown
Apparent Right ascension
Unknown
Apparent Declination
Unknown
Sunlit
N/A
Visualization observer readout
Local Sidereal Time
08:42:11
Azimuth
Unknown
Elevation
Unknown
Doppler factor
Unknown
Orbital elements
Apogee altitude
463.761 km
Perigee altitude
461.151 km
Semi-major axis
6,840.593 km
Eccentricity
0.00019
Inclination
97.2855°
RAAN
6.0253°
Arg. of periapsis
82.5916°
True anomaly
277.53273°
Mean anomaly
277.5544°
Eccentric anomaly
277.54356°
Mean motion
3.83621 °/min
Orbital period
93.84 mins
BSTAR
0.00051101
Loading maneuver chart data...
Computing Atmospheric mass density...
Loading historical data...
Loading historical data...
Loading historical data...
Loading historical data...
Loading historical data...
Loading historical data...
Loading historical data...

Documentation

Showing up to 5 results
|